Flag for U.S.A. Weather past 2 weeks in Providence, Rhode Island, U.S.A.

Now
54 °F

Passing clouds.


Feels Like: 51 °F
Forecast: 43 / 68 °F
Wind: 10 mph from Northwest

Location: Green State Airport

Current Time: Sep 22, 2014 at 10:36:12 PM

Latest Report: Sep 22, 2014 at 9:51 PM


Visibility: 10 mi

Pressure: 30.08 "Hg

Humidity: 55%

Dew point: 38 °F

Location of ProvidenceLocation

Historic Weather in Providence — Graph

°F

Providence temperature yesterday

Maximum temperature yesterday: 75 °F (at 10:00 AM)
Minimum temperature yesterday: 61 °F (at 12:51 AM)
Average temperature yesterday: 69 °F

Past Weeks' High & Low Weather Summary

 TemperatureHumidityPressure
High79 °F (Sep 11, 2:51 PM)100% (Sep 21, 9:58 PM)30.44 "Hg (Sep 21, 9:58 PM)
Low43 °F (Sep 20, 2:51 AM)33% (Sep 18, 1:51 PM)29.57 "Hg (Sep 22, 1:51 AM)
Average63 °F69%30.09 "Hg
* Reported Sep 7 8:51 PM — Sep 22 8:51 PM, Providence, Weather by CustomWeather, © 2014

Note: Actual official high and low records may vary slightly from our data, if they occured in-between our weather recording intervals... More about our weather records

Advertising

Providence weather history for previous 24 hours

 ConditionsComfort  
Time TempWeatherWind HumidityBarometerVisibility
8:51 PM
Sep 22
57 °FPassing clouds.16 mph53%30.04 "Hg10 mi
7:51 PM60 °FPassing clouds.10 mph53%29.98 "Hg10 mi
6:51 PM63 °FScattered clouds.12 mph50%29.93 "Hg10 mi
5:51 PM66 °FPassing clouds.15 mph43%29.90 "Hg10 mi
4:51 PM69 °FPassing clouds.17 mph41%29.87 "Hg10 mi
3:51 PM70 °FPassing clouds.22 mph38%29.84 "Hg10 mi
2:51 PM72 °FPassing clouds.17 mph37%29.83 "Hg10 mi
1:51 PM73 °FPassing clouds.16 mph37%29.80 "Hg10 mi
12:51 PM73 °FPassing clouds.18 mph38%29.79 "Hg10 mi
11:51 AM72 °FPassing clouds.16 mph48%29.78 "Hg10 mi
10:51 AM70 °FScattered clouds.16 mph53%29.78 "Hg10 mi
9:51 AM68 °FPassing clouds.17 mph57%29.76 "Hg10 mi
8:51 AM66 °FPassing clouds.13 mph73%29.74 "Hg10 mi
7:51 AM64 °FPassing clouds.7 mph81%29.71 "Hg10 mi
6:51 AM62 °FPassing clouds.6 mph83%29.68 "Hg10 mi
5:51 AM64 °FPassing clouds.6 mph84%29.65 "Hg10 mi
4:51 AM66 °FClear.7 mph90%29.60 "Hg10 mi
3:51 AM68 °FPassing clouds.7 mph90%29.58 "Hg10 mi
2:51 AM68 °FPassing clouds.8 mph93%29.57 "Hg10 mi
2:03 AM67 °FLow clouds.13 mph97%29.58 "Hg10 mi
1:51 AM67 °FLow clouds.10 mph97%29.57 "Hg10 mi
1:04 AM66 °FPassing clouds.6 mph100%29.59 "Hg10 mi
12:51 AM66 °FClear.7 mph96%29.58 "Hg10 mi
11:57 PM
Sep 21
67 °FFog.6 mph100%29.59 "Hg3 mi
10:50 PM68 °FFog.5 mph100%29.58 "Hg0 mi
Weather by CustomWeather, © 2014

See weather overviewHow to use our weather pages